Flag for Germany Past Weather in Neustadt an der Weinstraße, Rhineland-Palatinate, Germany — Yesterday and Last 2 Weeks

Now
60 °F

Light rain. Passing clouds.


Feels Like: 60 °F
Forecast: 55 / 77 °F
Wind: 15 mph from Southwest

Location: Ramstein

Current Time: May 27, 2016 at 2:36:10 AM

Latest Report: May 27, 2016 at 1:58 AM


Visibility: N/A

Pressure: 29.96 "Hg

Humidity: 75%

Dew Point: 52 °F

Location of Neustadt an der WeinstraßeLocation

Past Weather in Neustadt an der Weinstraße — Graph

°F

Neustadt an der Weinstraße Temperature Yesterday

Maximum temperature yesterday: 74 °F (at 5:58 PM)
Minimum temperature yesterday: 39 °F (at 4:58 AM)
Average temperature yesterday: 59 °F

High & Low Weather Summary for the Past Weeks

 TemperatureHumidityPressure
High75 °F (May 22, 2:58 PM)100% (May 12, 1:58 AM)30.18 "Hg (May 12, 1:58 AM)
Low33 °F (May 15, 5:58 AM)35% (May 22, 1:58 PM)29.48 "Hg (May 12, 5:58 PM)
Average54 °F80%29.92 "Hg
* Reported May 12 1:58 AM — May 27 1:04 AM, Neustadt an der Weinstraße, Weather by CustomWeather, © 2016

Note: Actual official high and low records may vary slightly from our data, if they occured in-between our weather recording intervals... More about our weather records

Advertising

Neustadt an der Weinstraße Weather History for the Previous 24 Hours

Scroll right to see more
 ConditionsComfort  
Time TempWeatherWind HumidityBarometerVisibility
1:04 AM
Fri, May 27
57 °FPassing clouds.2 mph88%29.93 "HgN/A
12:54 AM57 °FLight rain. Passing clouds.No wind88%29.93 "HgN/A
11:58 PM
Thu, May 26
59 °FClear.No wind82%29.93 "HgN/A
10:58 PM62 °FPassing clouds.No wind72%29.95 "HgN/A
9:58 PM65 °FLight rain. Passing clouds.3 mph64%29.95 "HgN/A
8:58 PM67 °FSunny.6 mph61%29.94 "HgN/A
7:58 PM69 °FSunny.9 mph58%29.94 "HgN/A
6:58 PM73 °FSunny.9 mph51%29.93 "HgN/A
5:58 PM74 °FSunny.9 mph51%29.94 "HgN/A
4:59 PM73 °FPassing clouds.3 mph47%29.95 "HgN/A
4:58 PM72 °FPassing clouds.5 mph51%29.96 "HgN/A
4:48 PM73 °FPassing clouds.1 mph47%29.95 "HgN/A
3:58 PM73 °FPassing clouds.5 mph53%29.97 "HgN/A
3:01 PM72 °FPassing clouds.6 mph57%29.97 "HgN/A
2:49 PM70 °FPassing clouds.7 mph60%29.98 "HgN/A
1:58 PM70 °FPassing clouds.3 mph60%29.98 "HgN/A
12:58 PM70 °FSunny.3 mph60%29.98 "HgN/A
11:58 AM68 °FSunny.2 mph65%29.99 "HgN/A
10:58 AM64 °FSunny.No wind73%30.01 "HgN/A
9:58 AM59 °FSunny.No wind88%30.01 "HgN/A
8:59 AM50 °FScattered clouds.No wind100%30.02 "HgN/A
8:04 AM48 °FFog.No wind100%30.02 "Hg1 mi
7:03 AM45 °FQuite cool.No wind100%30.01 "HgN/A
6:58 AM45 °FFog.No wind100%30.01 "Hg1 mi
5:58 AM41 °FFog.No wind100%30.01 "Hg1 mi
4:59 AM39 °FDrizzle. Fog.No wind100%30.00 "HgN/A
4:58 AM39 °FDrizzle. Fog.No wind100%30.02 "HgN/A
3:58 AM40 °FDrizzle. Fog.No wind100%30.01 "Hg5 mi
2:58 AM43 °FFog.No wind100%30.01 "Hg5 mi
Weather by CustomWeather, © 2016

See weather overviewHow to use our weather pages